CW8420 Weather Reports


Display with metric or nautical units.
time (UTC)temp
F
wind
direction
speed
MPH
gust
MPH
rain 1hr
in
rain 24hr
in
rain mn
in
humidity
%
barometer
mb
20210621061530 81 312 0.0 0.0 0.00 0.00 0.00 26 1005.3
20210621061325 82 312 0.0 0.0 0.00 0.00 0.00 25 1018.9
20210621060826 83 312 0.0 0.0 0.00 0.00 0.00 25 1018.9
20210621060005 83 312 0.0 0.0 0.00 0.00 0.00 25 1005.1
20210621055825 84 312 0.0 0.0 0.00 0.00 0.00 25 1018.8
20210621055325 85 312 0.0 0.0 0.00 0.00 0.00 24 1018.8
20210621054826 85 312 0.0 0.0 0.00 0.00 0.00 24 1018.7
20210621054718 85 312 0.0 0.0 0.00 0.00 0.00 24 1005.1
20210621054325 86 312 0.0 0.0 0.00 0.00 0.00 24 1018.7
20210621053824 86 312 0.0 0.0 0.00 0.00 0.00 24 1018.6
20210621053321 87 312 0.0 0.0 0.00 0.00 0.00 24 1018.6
20210621053142 86 312 0.0 0.0 0.00 0.00 0.00 24 1004.9
20210621052821 87 312 0.0 0.0 0.00 0.00 0.00 24 1018.6
20210621052319 87 312 0.0 0.0 0.00 0.00 0.00 24 1018.5
20210621051818 87 312 0.0 0.0 0.00 0.00 0.00 23 1018.4
20210621051530 87 312 0.0 0.0 0.00 0.00 0.00 23 1004.7
20210621051317 88 312 0.0 0.0 0.00 0.00 0.00 23 1018.4
20210621050836 88 312 0.0 0.0 0.00 0.00 0.00 23 1018.4
20210621050058 88 312 0.0 0.0 0.00 0.00 0.00 23 1004.6
20210621045821 88 312 0.0 0.0 0.00 0.00 0.00 23 1018.4
20210621045321 89 312 0.0 0.0 0.00 0.00 0.00 23 1018.3
20210621044821 89 312 0.0 1.0 0.00 0.00 0.00 22 1018.2
20210621044541 88 312 0.0 1.0 0.00 0.00 0.00 22 1004.3
20210621044320 89 312 0.0 4.0 0.00 0.00 0.00 22 1018.1
20210621043818 89 283 0.0 10.0 0.00 0.00 0.00 22 1018.1
20210621043320 89 321 3.0 10.0 0.00 0.00 0.00 22 1018.0
20210621043046 89 318 2.0 9.0 0.00 0.00 0.00 22 1004.2
20210621042817 89 310 3.0 9.0 0.00 0.00 0.00 22 1018.0
20210621042317 89 294 3.0 9.0 0.00 0.00 0.00 22 1017.9
20210621041818 89 312 2.0 8.0 0.00 0.00 0.00 22 1017.8
20210621041718 89 316 2.0 8.0 0.00 0.00 0.00 22 1003.9
20210621041317 89 297 3.0 9.0 0.00 0.00 0.00 22 1017.6
20210621040817 89 319 4.0 9.0 0.00 0.00 0.00 22 1017.5
20210621040318 89 308 3.0 8.0 0.00 0.00 0.00 22 1017.5
20210621040122 89 320 3.0 8.0 0.00 0.00 0.00 22 1003.6
20210621035817 89 309 4.0 8.0 0.00 0.00 0.00 22 1017.4
20210621035318 89 324 3.0 8.0 0.00 0.00 0.00 22 1017.4
20210621034818 90 318 3.0 6.0 0.00 0.00 0.00 22 1017.4
20210621034642 89 329 3.0 7.0 0.00 0.00 0.00 22 1003.5
20210621034319 90 295 1.0 6.0 0.00 0.00 0.00 21 1017.3
20210621033819 90 323 0.0 1.0 0.00 0.00 0.00 21 1017.2
20210621033318 90 298 0.0 1.0 0.00 0.00 0.00 21 1017.1
20210621033018 90 297 0.0 6.0 0.00 0.00 0.00 21 1003.3
20210621032818 91 306 0.0 6.0 0.00 0.00 0.00 21 1017.1
20210621032319 91 322 1.0 6.0 0.00 0.00 0.00 21 1016.9
20210621031820 91 303 0.0 2.0 0.00 0.00 0.00 20 1016.8
20210621031516 91 337 0.0 8.0 0.00 0.00 0.00 20 1003.0
20210621031321 91 318 0.0 8.0 0.00 0.00 0.00 20 1016.8
20210621030821 92 322 2.0 8.0 0.00 0.00 0.00 20 1016.7
20210621030322 92 334 3.0 10.0 0.00 0.00 0.00 20 1016.5
20210621030111 91 335 2.0 10.0 0.00 0.00 0.00 20 1002.6
20210621025822 92 318 4.0 10.0 0.00 0.00 0.00 20 1016.4
20210621025323 92 336 5.0 11.0 0.00 0.00 0.00 20 1016.3
20210621024824 92 316 4.0 10.0 0.00 0.00 0.00 19 1016.2
20210621024635 92 317 5.0 10.0 0.00 0.00 0.00 19 1002.3
20210621024322 93 335 3.0 8.0 0.00 0.00 0.00 19 1016.1
20210621023819 93 321 4.0 9.0 0.00 0.00 0.00 19 1016.1
20210621023321 93 339 4.0 13.0 0.00 0.00 0.00 19 1016.1
20210621023114 93 329 1.0 13.0 0.00 0.00 0.00 19 1002.1
20210621022840 94 324 6.0 13.0 0.00 0.00 0.00 19 1016.0
20210621022331 94 339 6.0 12.0 0.00 0.00 0.00 18 1015.9
20210621021832 94 337 5.0 12.0 0.00 0.00 0.00 18 1015.8
20210621021517 94 317 6.0 11.0 0.00 0.00 0.00 18 1001.8
20210621021331 95 313 6.0 12.0 0.00 0.00 0.00 18 1015.7
20210621020832 95 326 4.0 13.0 0.00 0.00 0.00 18 1015.6
20210621020504 95 354 7.0 15.0 0.00 0.00 0.00 18 1001.6
20210621020331 95 319 8.0 15.0 0.00 0.00 0.00 18 1015.6
20210621015830 96 324 8.0 15.0 0.00 0.00 0.00 17 1015.5
20210621015322 96 329 9.0 16.0 0.00 0.00 0.00 17 1015.4
20210621014823 97 318 8.0 16.0 0.00 0.00 0.00 17 1015.3
20210621014611 96 318 5.0 17.0 0.00 0.00 0.00 17 1001.4
20210621014323 97 333 5.0 17.0 0.00 0.00 0.00 17 1015.4
20210621013823 97 351 9.0 17.0 0.00 0.00 0.00 17 1015.2
20210621013051 97 331 7.0 16.0 0.00 0.00 0.00 17 1001.2
20210621012817 98 312 10.0 16.0 0.00 0.00 0.00 17 1015.2
20210621012318 98 336 9.0 14.0 0.00 0.00 0.00 16 1015.1
20210621011819 98 316 7.0 19.0 0.00 0.00 0.00 16 1015.0
20210621011704 98 320 7.0 19.0 0.00 0.00 0.00 16 1001.1
20210621011507 98 331 8.0 19.0 0.00 0.00 0.00 16 1001.0
20210621011318 98 316 6.0 19.0 0.00 0.00 0.00 16 1015.0
20210621010817 99 316 10.0 20.0 0.00 0.00 0.00 16 1015.0
20210621010335 99 4 9.0 20.0 0.00 0.00 0.00 16 1014.9
20210621010105 99 343 8.0 20.0 0.00 0.00 0.00 16 1000.8
20210621005834 99 13 8.0 20.0 0.00 0.00 0.00 16 1014.8
20210621005316 100 349 8.0 18.0 0.00 0.00 0.00 16 1014.8
20210621004816 100 324 10.0 20.0 0.00 0.00 0.00 16 1014.7
20210621004534 100 326 9.0 20.0 0.00 0.00 0.00 15 1000.5
20210621004335 100 337 9.0 20.0 0.00 0.00 0.00 15 1014.7
20210621003834 101 350 10.0 20.0 0.00 0.00 0.00 15 1014.7
20210621003333 101 276 9.0 20.0 0.00 0.00 0.00 15 1014.6
20210621003036 100 297 9.0 18.0 0.00 0.00 0.00 15 1000.4
20210621002832 101 302 9.0 18.0 0.00 0.00 0.00 15 1014.6
20210621002331 101 289 6.0 19.0 0.00 0.00 0.00 15 1014.5
20210621001834 102 287 7.0 20.0 0.00 0.00 0.00 15 1014.5
20210621001650 101 13 9.0 20.0 0.00 0.00 0.00 15 1000.4
20210621001323 102 327 10.0 20.0 0.00 0.00 0.00 15 1014.4
20210621000823 102 295 9.0 17.0 0.00 0.00 0.00 15 1014.5
20210621000323 103 297 8.0 19.0 0.00 0.00 0.00 15 1014.4
20210621000119 102 307 7.0 19.0 0.00 0.00 0.00 15 1000.4
20210620235822 103 337 8.0 14.0 0.00 0.00 0.00 15 1014.5
20210620235321 103 277 7.0 14.0 0.00 0.00 0.00 14 1014.5
20210620234816 103 13 2.0 16.0 0.00 0.00 0.00 14 1014.5
20210620234537 102 336 8.0 16.0 0.00 0.00 0.00 14 1000.5
20210620234316 103 333 8.0 16.0 0.00 0.00 0.00 14 1014.6
20210620233835 103 252 7.0 16.0 0.00 0.00 0.00 14 1014.6
20210620233334 103 306 8.0 14.0 0.00 0.00 0.00 13 1014.7
20210620233013 103 340 4.0 19.0 0.00 0.00 0.00 14 1000.5
20210620232831 103 305 6.0 19.0 0.00 0.00 0.00 14 1014.7
20210620232331 104 296 9.0 17.0 0.00 0.00 0.00 14 1014.7
20210620231827 103 285 6.0 13.0 0.00 0.00 0.00 14 1014.7
20210620231606 103 334 4.0 14.0 0.00 0.00 0.00 14 1000.6
20210620231323 103 312 5.0 17.0 0.00 0.00 0.00 14 1014.7
20210620230820 103 307 8.0 17.0 0.00 0.00 0.00 14 1014.7
20210620230322 103 268 1.0 15.0 0.00 0.00 0.00 14 1014.7
20210620230025 103 276 6.0 15.0 0.00 0.00 0.00 14 1000.7
20210620225822 104 336 9.0 15.0 0.00 0.00 0.00 14 1014.9
20210620225322 104 340 8.0 17.0 0.00 0.00 0.00 14 1014.8
20210620224822 104 310 9.0 17.0 0.00 0.00 0.00 14 1014.9
20210620224522 103 291 1.0 17.0 0.00 0.00 0.00 14 1000.8
20210620224321 104 18 1.0 17.0 0.00 0.00 0.00 14 1014.8
20210620223820 104 355 6.0 18.0 0.00 0.00 0.00 13 1014.7
20210620223319 104 325 11.0 18.0 0.00 0.00 0.00 13 1014.9
20210620223155 104 23 6.0 18.0 0.00 0.00 0.00 13 1000.8
20210620222818 105 325 7.0 20.0 0.00 0.00 0.00 13 1014.9
20210620222317 105 283 7.0 20.0 0.00 0.00 0.00 13 1015.0
20210620221836 105 318 5.0 16.0 0.00 0.00 0.00 13 1015.0
20210620221558 104 279 4.0 18.0 0.00 0.00 0.00 13 1001.0
20210620221335 105 349 4.0 18.0 0.00 0.00 0.00 12 1015.0
20210620220834 105 291 9.0 18.0 0.00 0.00 0.00 12 1015.1
20210620220333 105 312 11.0 18.0 0.00 0.00 0.00 12 1015.2
20210620220031 105 331 4.0 16.0 0.00 0.00 0.00 13 1001.1
20210620215832 105 284 5.0 16.0 0.00 0.00 0.00 13 1015.2
20210620215331 105 339 8.0 16.0 0.00 0.00 0.00 13 1015.2
20210620214830 105 285 4.0 16.0 0.00 0.00 0.00 12 1015.3
20210620214707 104 291 6.0 16.0 0.00 0.00 0.00 12 1001.3
20210620214327 105 297 6.0 16.0 0.00 0.00 0.00 12 1015.4
20210620213820 105 315 7.0 18.0 0.00 0.00 0.00 12 1015.4
20210620213319 106 333 3.0 14.0 0.00 0.00 0.00 12 1015.6
20210620213045 106 320 5.0 15.0 0.00 0.00 0.00 12 1001.5
20210620212820 106 331 8.0 15.0 0.00 0.00 0.00 12 1015.6
20210620212321 106 301 9.0 15.0 0.00 0.00 0.00 12 1015.7
20210620211822 106 331 7.0 15.0 0.00 0.00 0.00 13 1015.7
20210620211534 106 258 4.0 17.0 0.00 0.00 0.00 13 1001.6
20210620211320 106 331 7.0 17.0 0.00 0.00 0.00 12 1015.8
20210620210822 106 297 11.0 17.0 0.00 0.00 0.00 12 1015.8
20210620210320 107 319 6.0 15.0 0.00 0.00 0.00 13 1015.8
20210620210159 106 333 6.0 16.0 0.00 0.00 0.00 13 1001.7
20210620205819 106 252 5.0 17.0 0.00 0.00 0.00 14 1015.8
20210620205318 106 299 3.0 17.0 0.00 0.00 0.00 14 1015.9
20210620204820 105 304 9.0 16.0 0.00 0.00 0.00 14 1016.1
20210620204605 105 272 6.0 16.0 0.00 0.00 0.00 14 1001.9
20210620204320 106 349 11.0 16.0 0.00 0.00 0.00 14 1016.1
20210620203819 105 232 1.0 14.0 0.00 0.00 0.00 15 1016.2
20210620203318 104 302 5.0 16.0 0.00 0.00 0.00 15 1016.3
20210620203105 104 312 8.0 16.0 0.00 0.00 0.00 15 1002.0
20210620202819 104 290 8.0 16.0 0.00 0.00 0.00 15 1016.2
20210620202318 104 254 7.0 17.0 0.00 0.00 0.00 16 1016.3
20210620201817 105 18 9.0 17.0 0.00 0.00 0.00 16 1016.3
20210620201625 104 258 3.0 17.0 0.00 0.00 0.00 16 1002.1
20210620201503 104 262 3.0 13.0 0.00 0.00 0.00 16 1002.2
20210620201331 105 240 6.0 13.0 0.00 0.00 0.00 16 1016.5
20210620200831 104 271 5.0 15.0 0.00 0.00 0.00 16 1016.5
20210620200330 105 246 4.0 13.0 0.00 0.00 0.00 15 1016.4
20210620200143 104 247 3.0 11.0 0.00 0.00 0.00 15 1002.3
20210620195831 105 245 2.0 11.0 0.00 0.00 0.00 16 1016.6
20210620195331 105 274 2.0 11.0 0.00 0.00 0.00 16 1016.7
20210620194831 105 285 2.0 9.0 0.00 0.00 0.00 16 1016.8
20210620194543 104 304 1.0 6.0 0.00 0.00 0.00 16 1002.6
20210620194330 104 281 2.0 6.0 0.00 0.00 0.00 15 1016.8
20210620193828 104 261 0.0 4.0 0.00 0.00 0.00 16 1016.9
20210620193327 104 250 1.0 4.0 0.00 0.00 0.00 16 1017.0
20210620193053 103 260 0.0 5.0 0.00 0.00 0.00 16 1002.8
20210620192828 104 294 1.0 5.0 0.00 0.00 0.00 16 1017.0
20210620192328 104 277 1.0 15.0 0.00 0.00 0.00 16 1017.1
20210620191827 104 283 8.0 15.0 0.00 0.00 0.00 16 1017.2
20210620191632 103 306 0.0 6.0 0.00 0.00 0.00 15 1002.9
20210620191324 104 329 2.0 12.0 0.00 0.00 0.00 15 1017.0
20210620190825 103 322 1.0 12.0 0.00 0.00 0.00 15 1017.2
20210620190322 103 304 1.0 4.0 0.00 0.00 0.00 16 1017.2
20210620190035 102 332 0.0 4.0 0.00 0.00 0.00 16 1003.1
20210620185839 103 331 1.0 4.0 0.00 0.00 0.00 16 1017.3
20210620185338 102 349 1.0 10.0 0.00 0.00 0.00 16 1017.4
20210620184831 102 289 5.0 10.0 0.00 0.00 0.00 17 1017.3
20210620184711 101 284 6.0 12.0 0.00 0.00 0.00 17 1003.2
20210620184503 101 273 3.0 12.0 0.00 0.00 0.00 17 1003.2
20210620184332 101 270 4.0 12.0 0.00 0.00 0.00 18 1017.5
20210620183827 101 329 2.0 11.0 0.00 0.00 0.00 18 1017.4
20210620183324 100 239 2.0 6.0 0.00 0.00 0.00 18 1017.5
20210620183054 99 325 0.0 3.0 0.00 0.00 0.00 19 1003.3
20210620182822 99 358 1.0 3.0 0.00 0.00 0.00 19 1017.5
20210620182318 99 177 0.0 2.0 0.00 0.00 0.00 20 1017.6
20210620181831 98 228 0.0 2.0 0.00 0.00 0.00 20 1017.6
20210620181538 98 209 0.0 2.0 0.00 0.00 0.00 21 1003.5
20210620181327 98 209 0.0 2.0 0.00 0.00 0.00 22 1017.6
20210620180826 97 183 0.0 2.0 0.00 0.00 0.00 21 1017.6
20210620180324 96 151 0.0 1.0 0.00 0.00 0.00 22 1017.7
20210620180132 96 194 0.0 1.0 0.00 0.00 0.00 22 1003.5
20210620175822 96 305 0.0 1.0 0.00 0.00 0.00 22 1017.8
20210620175323 96 262 0.0 1.0 0.00 0.00 0.00 22 1017.9
20210620174822 95 254 0.0 1.0 0.00 0.00 0.00 23 1017.9
20210620174639 95 290 0.0 1.0 0.00 0.00 0.00 23 1003.8
20210620174321 95 325 0.0 1.0 0.00 0.00 0.00 23 1018.0
20210620173820 95 325 0.0 1.0 0.00 0.00 0.00 23 1018.1
20210620173320 95 324 0.0 7.0 0.00 0.00 0.00 23 1018.1
20210620173012 94 339 0.0 9.0 0.00 0.00 0.00 23 1003.8
20210620172820 95 212 1.0 9.0 0.00 0.00 0.00 23 1018.1
20210620172320 95 218 5.0 9.0 0.00 0.00 0.00 23 1018.1
20210620171820 95 222 0.0 7.0 0.00 0.00 0.00 24 1018.1
20210620171725 94 196 0.0 7.0 0.00 0.00 0.00 24 1003.8
20210620171317 94 210 0.0 3.0 0.00 0.00 0.00 24 1018.2
20210620170817 94 214 0.0 1.0 0.00 0.00 0.00 25 1018.1
20210620170316 94 179 0.0 3.0 0.00 0.00 0.00 25 1018.1
20210620170056 93 218 0.0 3.0 0.00 0.00 0.00 25 1003.9
20210620165817 94 218 1.0 3.0 0.00 0.00 0.00 25 1018.1
20210620165317 94 162 0.0 2.0 0.00 0.00 0.00 26 1018.1
20210620164818 93 206 0.0 2.0 0.00 0.00 0.00 26 1018.0
20210620164545 93 239 0.0 2.0 0.00 0.00 0.00 25 1003.7
20210620164319 93 207 0.0 2.0 0.00 0.00 0.00 26 1018.0
20210620163818 93 222 0.0 1.0 0.00 0.00 0.00 26 1018.0
20210620163318 93 151 0.0 3.0 0.00 0.00 0.00 26 1018.0
20210620163005 92 225 0.0 3.0 0.00 0.00 0.00 26 1003.8
20210620162817 92 227 0.0 3.0 0.00 0.00 0.00 26 1018.0
20210620162317 92 239 0.0 3.0 0.00 0.00 0.00 26 1018.1
20210620161816 91 202 0.0 3.0 0.00 0.00 0.00 27 1018.0
20210620161559 90 179 0.0 2.0 0.00 0.00 0.00 27 1003.7
20210620161335 91 214 0.0 2.0 0.00 0.00 0.00 28 1018.0
20210620160832 91 200 0.0 2.0 0.00 0.00 0.00 28 1017.9
20210620160330 90 198 0.0 10.0 0.00 0.00 0.00 29 1018.0
20210620160026 90 208 2.0 10.0 0.00 0.00 0.00 28 1003.8
20210620155830 90 208 2.0 10.0 0.00 0.00 0.00 28 1017.9
20210620155328 90 206 0.0 11.0 0.00 0.00 0.00 29 1017.9
20210620154823 90 223 2.0 12.0 0.00 0.00 0.00 29 1018.0
20210620154531 89 169 0.0 12.0 0.00 0.00 0.00 29 1003.8
20210620154323 90 229 1.0 12.0 0.00 0.00 0.00 29 1018.1
20210620153821 90 188 3.0 11.0 0.00 0.00 0.00 30 1018.0
20210620153321 89 118 4.0 12.0 0.00 0.00 0.00 30 1018.0
20210620153129 88 221 1.0 12.0 0.00 0.00 0.00 31 1003.7
20210620152815 88 196 4.0 12.0 0.00 0.00 0.00 31 1018.0
20210620152334 88 193 2.0 11.0 0.00 0.00 0.00 31 1018.0
20210620151832 87 226 3.0 10.0 0.00 0.00 0.00 32 1018.0
20210620151550 86 206 0.0 10.0 0.00 0.00 0.00 33 1003.8
20210620151330 86 221 1.0 10.0 0.00 0.00 0.00 33 1018.0
20210620150826 85 201 1.0 9.0 0.00 0.00 0.00 34 1017.9
20210620150323 85 215 2.0 9.0 0.00 0.00 0.00 34 1017.8
20210620150033 84 158 0.0 5.0 0.00 0.00 0.00 35 1003.6
20210620145821 85 185 0.0 5.0 0.00 0.00 0.00 35 1017.7
20210620145322 84 178 0.0 1.0 0.00 0.00 0.00 36 1017.6
20210620144821 84 151 0.0 1.0 0.00 0.00 0.00 36 1017.7
20210620144643 83 121 0.0 1.0 0.00 0.00 0.00 36 1003.6
20210620144521 83 168 0.0 2.0 0.00 0.00 0.00 36 1003.6
20210620144322 84 193 0.0 2.0 0.00 0.00 0.00 37 1017.6
20210620143821 83 191 0.0 4.0 0.00 0.00 0.00 37 1017.5
20210620143322 83 190 0.0 5.0 0.00 0.00 0.00 37 1017.5
20210620143149 82 156 0.0 1.0 0.00 0.00 0.00 38 1003.3
20210620142824 83 158 0.0 3.0 0.00 0.00 0.00 38 1017.5
20210620142318 82 216 0.0 7.0 0.00 0.00 0.00 38 1017.5
20210620141817 82 205 0.0 10.0 0.00 0.00 0.00 39 1017.4
20210620141538 81 175 0.0 10.0 0.00 0.00 0.00 39 1003.4
20210620141317 81 181 2.0 10.0 0.00 0.00 0.00 39 1017.3
20210620140817 81 216 0.0 1.0 0.00 0.00 0.00 39 1017.3
20210620140317 80 213 0.0 0.0 0.00 0.00 0.00 39 1017.3
20210620140018 80 137 0.0 0.0 0.00 0.00 0.00 39 1003.4
20210620135836 80 180 0.0 0.0 0.00 0.00 0.00 40 1017.3
20210620135333 80 191 0.0 1.0 0.00 0.00 0.00 40 1017.1
20210620134833 79 210 0.0 1.0 0.00 0.00 0.00 40 1017.0
20210620134636 79 206 0.0 1.0 0.00 0.00 0.00 40 1003.2
20210620134331 79 191 0.0 1.0 0.00 0.00 0.00 40 1017.0
20210620133830 79 221 0.0 2.0 0.00 0.00 0.00 40 1017.0
20210620133330 79 173 0.0 2.0 0.00 0.00 0.00 40 1016.9
20210620133119 78 171 0.0 5.0 0.00 0.00 0.00 41 1003.1
20210620132830 78 210 0.0 6.0 0.00 0.00 0.00 41 1016.9
20210620132331 78 212 1.0 7.0 0.00 0.00 0.00 42 1016.8
20210620131832 78 212 4.0 7.0 0.00 0.00 0.00 42 1016.8
20210620131607 77 211 2.0 6.0 0.00 0.00 0.00 42 1003.0
20210620131335 77 220 2.0 6.0 0.00 0.00 0.00 42 1016.9
20210620130834 77 201 0.0 5.0 0.00 0.00 0.00 42 1016.9
20210620130316 76 188 0.0 5.0 0.00 0.00 0.00 42 1016.9
20210620130205 76 173 0.0 5.0 0.00 0.00 0.00 42 1003.2
20210620130001 76 199 0.0 1.0 0.00 0.00 0.00 42 1003.2
20210620125817 76 178 0.0 1.0 0.00 0.00 0.00 42 1016.9
20210620125317 76 220 0.0 0.0 0.00 0.00 0.00 42 1016.9
20210620124818 76 221 0.0 0.0 0.00 0.00 0.00 42 1016.9
20210620124638 76 221 0.0 0.0 0.00 0.00 0.00 41 1003.2
20210620124316 76 222 0.0 0.0 0.00 0.00 0.00 40 1017.0
20210620123816 77 223 0.0 0.0 0.00 0.00 0.00 37 1016.9
20210620123335 77 223 0.0 0.0 0.00 0.00 0.00 36 1016.9
20210620123108 77 223 0.0 0.0 0.00 0.00 0.00 35 1003.2
20210620122834 77 223 0.0 0.0 0.00 0.00 0.00 36 1016.7
20210620122334 77 223 0.0 0.0 0.00 0.00 0.00 36 1016.7
20210620121835 77 223 0.0 0.0 0.00 0.00 0.00 35 1016.8
20210620121538 77 223 0.0 0.0 0.00 0.00 0.00 35 1003.3
20210620121316 78 298 0.0 0.0 0.00 0.00 0.00 34 1016.8
20210620120835 78 298 0.0 0.0 0.00 0.00 0.00 33 1016.7
20210620120334 78 298 0.0 0.0 0.00 0.00 0.00 33 1016.7
20210620120055 78 299 0.0 0.0 0.00 0.00 0.00 33 1003.2
20210620115834 78 299 0.0 0.0 0.00 0.00 0.00 33 1016.6
20210620115335 78 299 0.0 0.0 0.00 0.00 0.00 33 1016.6
20210620114835 78 299 0.0 0.0 0.00 0.00 0.00 33 1016.5
20210620114626 78 298 0.0 0.0 0.00 0.00 0.00 33 1003.0
20210620114315 78 299 0.0 0.0 0.00 0.00 0.00 33 1016.4
20210620113835 78 299 0.0 0.0 0.00 0.00 0.00 33 1016.3
20210620113316 78 299 0.0 0.0 0.00 0.00 0.00 33 1016.2
20210620113056 78 299 0.0 0.0 0.00 0.00 0.00 33 1002.8
20210620112817 78 299 0.0 0.0 0.00 0.00 0.00 33 1016.1
20210620112318 78 299 0.0 0.0 0.00 0.00 0.00 33 1016.1
20210620111820 78 299 0.0 0.0 0.00 0.00 0.00 34 1016.0
20210620111528 77 299 0.0 0.0 0.00 0.00 0.00 34 1002.5
20210620111321 78 299 0.0 0.0 0.00 0.00 0.00 34 1015.9
20210620110822 78 298 0.0 0.0 0.00 0.00 0.00 34 1015.8
20210620110322 78 299 0.0 0.0 0.00 0.00 0.00 34 1015.7
20210620110017 77 299 0.0 0.0 0.00 0.00 0.00 33 1002.3
20210620105821 78 299 0.0 0.0 0.00 0.00 0.00 33 1015.6
20210620105320 78 298 0.0 0.0 0.00 0.00 0.00 31 1015.5
20210620104819 78 299 0.0 0.0 0.00 0.00 0.00 32 1015.4
20210620104759 78 299 0.0 0.0 0.00 0.00 0.00 32 1002.2
20210620104322 78 299 0.0 0.0 0.00 0.00 0.00 32 1015.4
20210620103822 78 299 0.0 0.0 0.00 0.00 0.00 32 1015.3
20210620103322 79 298 0.0 0.0 0.00 0.00 0.00 32 1015.3
20210620103048 78 299 0.0 0.0 0.00 0.00 0.00 32 1002.0
20210620102820 79 299 0.0 0.0 0.00 0.00 0.00 32 1015.2
20210620102321 79 299 0.0 0.0 0.00 0.00 0.00 31 1015.2
20210620101822 79 299 0.0 0.0 0.00 0.00 0.00 31 1015.1
20210620101543 79 299 0.0 0.0 0.00 0.00 0.00 31 1001.8
20210620101320 79 298 0.0 0.0 0.00 0.00 0.00 31 1015.0
20210620100820 79 299 0.0 0.0 0.00 0.00 0.00 31 1015.0
20210620100320 80 299 0.0 0.0 0.00 0.00 0.00 30 1015.0
20210620100114 79 298 0.0 0.0 0.00 0.00 0.00 30 1001.7
20210620095821 80 298 0.0 0.0 0.00 0.00 0.00 30 1014.9
20210620095322 80 299 0.0 0.0 0.00 0.00 0.00 29 1014.9
20210620094823 80 298 0.0 0.0 0.00 0.00 0.00 30 1014.9
20210620094612 80 298 0.0 0.0 0.00 0.00 0.00 30 1001.7
20210620094323 80 299 0.0 0.0 0.00 0.00 0.00 30 1014.8
20210620093824 81 299 0.0 0.0 0.00 0.00 0.00 29 1014.8
20210620093324 81 298 0.0 0.0 0.00 0.00 0.00 30 1014.8
20210620093053 81 299 0.0 0.0 0.00 0.00 0.00 29 1001.6
20210620092824 81 299 0.0 0.0 0.00 0.00 0.00 29 1014.7
20210620092324 81 299 0.0 0.0 0.00 0.00 0.00 29 1014.8
20210620091822 82 299 0.0 0.0 0.00 0.00 0.00 29 1014.8
20210620091534 81 300 0.0 0.0 0.00 0.00 0.00 28 1001.6
20210620091321 82 299 0.0 0.0 0.00 0.00 0.00 28 1014.8
20210620090820 82 300 0.0 0.0 0.00 0.00 0.00 28 1014.7
20210620090321 83 299 0.0 0.0 0.00 0.00 0.00 28 1014.7
20210620090143 83 300 0.0 0.0 0.00 0.00 0.00 28 1001.6
20210620085822 83 299 0.0 0.0 0.00 0.00 0.00 27 1014.7
20210620085323 84 300 0.0 0.0 0.00 0.00 0.00 27 1014.6
20210620084823 84 300 0.0 0.0 0.00 0.00 0.00 26 1014.6
20210620084545 84 300 0.0 0.0 0.00 0.00 0.00 26 1001.6
20210620084322 85 300 0.0 0.0 0.00 0.00 0.00 26 1014.6
20210620083824 85 299 0.0 0.0 0.00 0.00 0.00 26 1014.6
20210620083325 86 300 0.0 0.0 0.00 0.00 0.00 26 1014.6
20210620083054 85 300 0.0 0.0 0.00 0.00 0.00 26 1001.6
20210620082824 86 300 0.0 0.0 0.00 0.00 0.00 26 1014.6
20210620082326 86 300 0.0 0.0 0.00 0.00 0.00 25 1014.6
20210620081828 87 300 0.0 0.0 0.00 0.00 0.00 25 1014.6
20210620081557 86 301 0.0 0.0 0.00 0.00 0.00 25 1001.6
20210620081328 87 299 0.0 0.0 0.00 0.00 0.00 25 1014.6
20210620080828 87 301 0.0 1.0 0.00 0.00 0.00 25 1014.6
20210620080327 87 300 0.0 1.0 0.00 0.00 0.00 25 1014.5
20210620080209 87 300 0.0 1.0 0.00 0.00 0.00 25 1001.5
20210620075826 87 299 0.0 1.0 0.00 0.00 0.00 25 1014.5
20210620075328 87 314 0.0 1.0 0.00 0.00 0.00 25 1014.4
20210620074827 87 283 0.0 1.0 0.00 0.00 0.00 25 1014.5
20210620074630 87 318 0.0 1.0 0.00 0.00 0.00 25 1001.5
20210620074328 87 327 0.0 2.0 0.00 0.00 0.00 25 1014.5
20210620073827 87 301 0.0 5.0 0.00 0.00 0.00 25 1014.6
20210620073326 87 310 1.0 6.0 0.00 0.00 0.00 25 1014.6
20210620073106 87 307 1.0 8.0 0.00 0.00 0.00 25 1001.6
20210620072826 87 320 1.0 8.0 0.00 0.00 0.00 25 1014.6
20210620072323 88 333 1.0 8.0 0.00 0.00 0.00 25 1014.6
20210620071820 88 308 0.0 1.0 0.00 0.00 0.00 25 1014.6
20210620071552 87 297 0.0 1.0 0.00 0.00 0.00 25 1001.6
20210620071320 88 312 0.0 1.0 0.00 0.00 0.00 24 1014.5
20210620070820 88 287 0.0 1.0 0.00 0.00 0.00 24 1014.4
20210620070339 88 293 0.0 1.0 0.00 0.00 0.00 24 1014.5
20210620070214 88 289 0.0 1.0 0.00 0.00 0.00 24 1001.7
20210620070017 88 289 0.0 1.0 0.00 0.00 0.00 24 1001.6
20210620065831 88 302 0.0 1.0 0.00 0.00 0.00 24 1014.5
20210620065330 88 294 0.0 1.0 0.00 0.00 0.00 24 1014.6
20210620064831 89 304 0.0 1.0 0.00 0.00 0.00 24 1014.7
20210620064643 88 283 0.0 1.0 0.00 0.00 0.00 24 1001.8
20210620064332 89 293 0.0 1.0 0.00 0.00 0.00 24 1014.6
20210620063831 89 289 0.0 1.0 0.00 0.00 0.00 24 1014.7
20210620063331 90 314 0.0 1.0 0.00 0.00 0.00 23 1014.7
20210620063034 89 297 0.0 1.0 0.00 0.00 0.00 23 1002.0
20210620062831 90 314 0.0 1.0 0.00 0.00 0.00 23 1014.9
20210620062331 91 289 0.0 1.0 0.00 0.00 0.00 22 1015.0
20210620061832 91 287 0.0 1.0 0.00 0.00 0.00 22 1015.0